Location: Lake of the Woods (North-East)
(49.6672°N, 94.8656°W)
Time: 18:06:04
(UTC-05:00)

ISS - All Passes

Search period start: 25 June 2016 00:00
Search period end: 05 July 2016 00:00
Orbit: 402 x 403 km, 51.6° (Epoch: 25 June)

Date Brightness Start Highest point End Pass type
(mag) Time Alt. Az. Time Alt. Az. Time Alt. Az.
25 Jun - 10:13:40 10° SSE 10:14:42 11° SE 10:15:42 10° ESE daylight
25 Jun - 11:47:21 10° SW 11:50:32 51° SSE 11:53:44 10° ENE daylight
25 Jun - 13:23:44 10° W 13:26:59 63° N 13:30:15 10° ENE daylight
25 Jun - 15:00:21 10° WNW 15:03:38 73° NNE 15:06:54 10° E daylight
25 Jun - 16:36:55 10° W 16:39:57 35° SSW 16:42:57 10° SE daylight
26 Jun - 10:54:55 10° SSW 10:57:53 33° SSE 11:00:53 10° E daylight
26 Jun - 12:30:55 10° W 12:34:11 75° NNW 12:37:29 10° ENE daylight
26 Jun - 14:07:34 10° WNW 14:10:50 62° N 14:14:04 10° E daylight
26 Jun - 15:44:05 10° WNW 15:47:18 54° SSW 15:50:30 10° SE daylight
26 Jun - 17:21:52 10° WSW 17:23:10 12° SW 17:24:28 10° SSW daylight
27 Jun - 10:02:46 10° SSW 10:05:18 21° SE 10:07:51 10° E daylight
27 Jun - 11:38:08 10° WSW 11:41:25 84° SSE 11:44:42 10° ENE daylight
27 Jun - 13:14:45 10° W 13:18:00 58° N 13:21:15 10° E daylight
27 Jun - 14:51:17 10° WNW 14:54:34 79° SSW 14:57:50 10° ESE daylight
27 Jun - 16:28:13 10° W 16:30:39 19° SW 16:33:04 10° S daylight
28 Jun - 09:11:11 10° SSE 09:12:46 13° SE 09:14:22 10° ESE daylight
28 Jun - 10:45:28 10° SW 10:48:41 58° SSE 10:51:55 10° ENE daylight
28 Jun - 12:21:54 10° W 12:25:10 61° N 12:28:25 10° ENE daylight
28 Jun - 13:58:30 10° WNW 14:01:48 78° NNE 14:05:04 10° ESE daylight
28 Jun - 15:35:08 10° W 15:38:04 30° SSW 15:40:59 10° SSE daylight
29 Jun - 09:52:56 10° SW 09:55:59 37° SSE 09:59:03 10° E daylight
29 Jun - 11:29:04 10° W 11:32:20 70° N 11:35:37 10° ENE daylight
29 Jun - 13:05:43 10° WNW 13:08:58 64° N 13:12:13 10° E daylight
29 Jun - 14:42:14 10° WNW 14:45:23 47° SSW 14:48:33 10° SE daylight
29 Jun - 16:20:56 10° SW 16:21:12 10° SW 16:21:27 10° SW daylight
30 Jun - 09:00:39 10° SSW 09:03:21 24° SE 09:06:03 10° E daylight
30 Jun - 10:36:15 10° WSW 10:39:31 89° NNW 10:42:48 10° ENE daylight
30 Jun - 12:12:53 10° WNW 12:16:08 58° N 12:19:22 10° E daylight
30 Jun - 13:49:24 10° WNW 13:52:40 72° SSW 13:55:56 10° ESE daylight
30 Jun - 15:26:28 10° W 15:28:41 17° SW 15:30:53 10° S daylight
01 Jul - 08:08:49 10° S 08:10:46 15° SE 08:12:44 10° ESE daylight
01 Jul - 09:43:30 10° WSW 09:46:44 66° SSE 09:50:00 10° ENE daylight
01 Jul - 11:20:01 10° W 11:23:15 59° N 11:26:30 10° ENE daylight
01 Jul - 12:56:35 10° WNW 12:59:52 84° NNE 13:03:09 10° ESE daylight
01 Jul - 14:33:16 10° W 14:36:05 27° SW 14:38:53 10° SSE daylight
02 Jul - 08:50:53 10° SW 08:54:00 43° SSE 08:57:07 10° ENE daylight
02 Jul - 10:27:08 10° W 10:30:23 67° N 10:33:39 10° ENE daylight
02 Jul - 12:03:46 10° WNW 12:07:02 67° N 12:10:18 10° E daylight
02 Jul - 13:40:18 10° WNW 13:43:25 42° SSW 13:46:31 10° SE daylight
03 Jul - 07:58:29 10° SSW 08:01:19 27° SE 08:04:10 10° E daylight
03 Jul - 09:34:16 10° WSW 09:37:32 82° NNW 09:40:50 10° ENE daylight
03 Jul - 11:10:55 10° WNW 11:14:10 59° N 11:17:24 10° E daylight
03 Jul - 12:47:25 10° WNW 12:50:40 64° SSW 12:53:54 10° ESE daylight
03 Jul - 14:24:43 10° WSW 14:26:37 15° SW 14:28:31 10° S daylight
04 Jul - 07:06:27 10° S 07:08:41 17° SE 07:10:57 10° E daylight
04 Jul - 08:41:28 10° WSW 08:44:43 73° SSE 08:47:59 10° ENE daylight
04 Jul - 10:18:01 10° W 10:21:16 58° N 10:24:30 10° E daylight
04 Jul - 11:54:35 10° WNW 11:57:51 90° WSW 12:01:08 10° ESE daylight
04 Jul - 13:31:20 10° W 13:34:00 23° SW 13:36:41 10° SSE daylight
